Вернуться в каталог

BREEZE-M DEB

АктивенHEO
NORAD 32035·DEBRIS·🇷🇺 Russia

Запущен Feb 28, 2006 с Baikonur Cosmodrome

Loading…

Ближайшие Пролёты (ближайшие 24 часа)

TLE

СвежийSource: Space-Track

Эпоха: Sep 14, 2026, 06:24 UTC

1 32035U 06006N   26257.26667251  .00006284  00000-0  16447-1 0  9995
2 32035  50.9297 207.7951 4678155  86.1244 324.2203  5.80390944  3145

Отслеживайте BREEZE-M DEB в реальном времени с AllMySat

Download on the App Store